Location: Ammerl�gen
(47.2167°N, 9.6000°E)
Time: 02:41:06
(UTC+00:00)

Cosmos 1850 Rocket - Pass Details

Date: 21 April 2021
Orbit: 753 x 786 km, 74.0° (Epoch: 16 May)

Event Time Altitude Azimuth Distance (km) Brightness Sun altitude
Exits shadow 21:04:36 49° 91° (E) 985 4.3 -23.4°
Drops below altitude 10° 21:09:17 10° 32° (NNE) 2,313 6.7 -23.8°
Sets 21:11:44 0° 27° (NNE) 3,250 7.6 -24.1°
